Find Starlink 30563

NORAD ID: 58042 Int'l Des: 2023-156 Owner: SPXS Country: US Constellation: starlink operational
LEOCIRCULAR

リアルタイム位置

3D地球を読み込み中...

Starlink 30563について

説明を読み込み中...

次回通過

Passes for default location (London). Set your location on the main map for personalized predictions.

高度履歴

Loading altitude history...

軌道要素

1 58042U 23156Q 26121.48404522 -.00001237 00000-0 -29659-4 0 9997
2 58042 53.1588 190.5307 0001009 77.3801 282.7313 15.30180137144433
Epoch: May 1, 2026 • Age: 8 hours

現在のステータス

高度 479.4 km
速度 7.63 km/s
衛星直下点 -15.02°S, 27.16°E
打ち上げ日 Oct 9, 2023
運用期間 2.5 years
タイプ internet

技術仕様

分類 Payload
質量 730.00 kg
乾燥質量 700.00 kg
総質量 730.00 kg
長さ 0.30 m
直径 4.10 m
スパン 29.00 m
形状 Box + pan
製造者 SPXS
バスタイプ Starlink V2M
フェーズステータス In Orbit
所有者/国 SPXS/US

Most Searched